Tracking 29528 objects as of 12-Sep-2024
HD Live streaming from Space Station
objects crossing your sky now

SHIYAN 20A DEB

Track SHIYAN 20A DEB now!
10-day predictions


NORAD ID: 55716
Int'l Code: 2022-169E
Perigee: 782.1 km
Apogee: 811.1 km
Inclination: 60.0 °
Period: 100.7 minutes
Semi major axis: 7167 km
RCS: Unknown
Launch date: December 12, 2022
Source: People's Republic of China (PRC)
Launch site: Jiuquan Satellite Launch Center, China (JSC)

Note: This is SATELLITE DEBRIS
Your satellite tracking list
Your tracking list is empty




NASA's NSSDC Master Catalog

Two Line Element Set (TLE):
1 55716U 22169E   24255.88945747  .00004958  00000-0  19357-2 0  9997
2 55716  59.9948 203.6043 0020219  75.5311 284.7966 14.30688938 80835
Source of the keplerian elements: AFSPC